Wind_Speed
78 79 79 79 79 78 79 79 79 80 81 82 82 81 80 80 79 78 77 76 75 73 71 70 70 71 72 72 72 72 72 71 68 67 65 65 65 65 64 63 63 64 65 65 65 65 65 66 66 66 66 66 65 64 62 60 59 59 59 58 57 58 58 57 55 54 53 49 44 40 37 34 31 28 26 25 22 20 17 16 16 16 16 15 13
80 81 81 81 81 81 81 81 81 82 82 81 81 80 79 78 78 77 76 76 75 74 74 73 73 74 74 74 73 72 71 68 66 66 65 65 65 64 64 64 64 66 66 65 65 65 65 66 66 66 66 66 65 63 60 59 59 59 58 57 58 58 58 56 54 53 50 46 41 37 33 31 29 27 25 23 21 19 17 15 16 16 15 14 13
81 82 83 82 82 82 82 82 81 81 80 80 79 79 78 78 78 78 77 77 76 76 75 74 74 74 74 75 73 71 67 65 65 65 64 64 64 64 65 66 67 66 65 64 64 65 66 66 66 66 66 65 63 61 59 58 59 59 57 58 58 58 57 55 54 51 47 42 37 33 30 28 27 25 23 22 20 18 16 16 16 16 15 14 13
81 82 82 82 81 81 80 80 80 79 79 79 79 79 79 79 79 78 78 77 77 77 75 74 74 75 75 74 71 68 65 65 65 64 63 63 64 66 66 67 66 65 63 64 65 66 66 66 66 66 65 64 62 60 59 59 59 57 57 59 59 58 56 54 52 48 43 38 34 30 28 26 25 23 21 20 19 18 17 16 16 16 15 13 12
79 79 80 81 80 80 80 79 79 79 80 80 80 79 80 80 80 80 80 79 78 77 77 77 75 75 72 69 66 65 64 64 63 63 64 65 66 66 66 66 64 63 64 65 67 66 66 66 66 66 64 62 60 59 59 59 57 57 59 59 59 57 55 53 48 44 39 35 31 28 25 24 23 22 21 20 19 18 17 17 16 15 14 13 12
77 78 80 80 80 80 79 80 80 81 81 81 81 81 81 80 79 79 78 77 76 76 77 75 72 71 68 65 64 63 63 62 61 62 65 67 67 66 65 63 62 64 66 67 67 66 66 66 66 65 63 61 59 59 58 57 57 59 60 59 57 55 53 50 44 40 36 32 30 26 24 23 23 21 20 20 18 18 18 17 16 15 14 13 12
78 79 80 81 81 81 81 80 80 80 80 79 79 78 76 73 71 70 70 71 71 71 69 66 66 67 65 63 63 62 60 59 60 62 64 66 67 66 63 62 64 66 67 67 66 67 67 67 65 63 62 60 58 58 57 57 59 61 60 57 55 53 50 46 41 37 33 30 28 25 23 23 23 21 20 20 19 18 18 17 16 14 13 13 12
78 78 78 78 78 77 74 73 72 70 70 70 70 68 64 63 65 65 66 68 67 65 60 59 62 62 60 60 61 60 58 59 60 61 63 65 66 65 63 64 67 68 67 67 67 68 67 65 63 62 60 59 57 57 58 60 61 60 57 54 52 50 46 42 38 34 31 28 26 24 24 23 22 22 21 20 19 19 19 17 15 13 13 13 13
70 72 69 67 65 64 63 62 61 59 60 61 59 56 57 60 62 63 65 69 68 64 62 61 63 62 61 62 61 58 58 61 61 63 67 67 66 65 66 67 69 68 68 68 68 67 66 63 62 60 59 58 57 58 61 61 59 57 54 51 49 46 42 39 35 32 29 26 24 25 24 23 22 22 21 20 19 19 19 18 15 13 13 14 14
68 70 66 60 56 58 59 57 55 56 57 56 53 54 58 62 63 64 69 73 71 70 70 68 68 66 65 65 61 60 63 64 66 69 69 68 66 67 69 71 70 69 69 69 68 66 64 62 60 59 58 58 59 61 62 59 56 53 50 47 45 42 39 36 32 31 28 24 24 25 25 23 22 22 22 21 21 20 20 18 16 13 13 14 14
74 78 79 75 69 69 68 64 64 65 62 59 59 62 68 70 70 72 77 77 74 74 73 70 67 65 65 65 63 64 66 68 71 71 68 66 66 69 71 72 71 70 69 68 66 64 62 60 58 58 59 61 61 61 59 55 52 49 46 44 41 39 36 33 32 30 26 23 25 26 25 24 22 22 22 22 22 21 21 19 16 15 15 15 15
77 78 81 81 81 79 78 76 75 75 72 70 70 73 78 78 77 80 81 79 75 74 71 64 61 62 64 63 64 68 71 73 73 69 67 67 69 71 71 71 70 70 68 66 64 61 59 58 57 59 62 63 60 57 54 51 48 45 43 40 38 36 33 32 32 29 25 24 25 26 26 24 23 23 23 23 23 22 22 20 19 20 21 20 19
78 75 75 76 77 76 75 76 75 77 79 80 79 80 82 82 80 79 77 73 69 68 65 59 58 61 62 64 69 73 74 73 71 69 69 70 70 70 69 69 69 68 66 64 61 59 57 57 60 62 63 60 55 51 49 47 44 43 40 37 36 34 33 33 31 27 26 25 27 28 27 25 24 24 23 23 24 24 23 21 20 22 24 25 24
81 81 82 80 79 78 77 79 81 83 85 84 81 78 79 77 75 73 68 64 61 59 59 57 59 62 65 69 71 71 70 70 71 72 71 70 69 68 67 68 67 65 64 61 59 58 58 60 62 61 59 54 49 46 45 44 42 41 38 36 34 32 34 34 29 27 27 28 29 28 27 26 25 25 24 24 24 25 23 20 20 21 23 26 26
84 87 91 91 88 85 83 83 86 88 87 85 78 73 73 73 70 66 61 57 55 54 56 59 62 66 68 68 66 67 69 71 73 73 71 70 69 68 68 66 65 62 61 60 59 59 61 62 60 57 53 48 45 44 43 43 41 39 36 34 32 32 35 34 30 29 29 29 30 29 29 28 26 26 25 25 25 25 25 22 21 21 24 27 27
87 85 86 88 85 82 83 84 86 87 86 82 75 69 70 75 71 64 60 57 55 55 59 62 65 66 64 63 65 70 71 72 72 72 71 71 70 68 66 63 61 59 59 59 60 62 62 60 57 53 48 45 44 43 42 42 41 37 34 33 31 33 36 34 31 30 30 30 31 30 30 29 28 27 26 26 26 26 26 25 24 24 26 27 27
90 84 77 80 83 84 88 90 90 88 86 82 77 72 75 79 75 66 61 60 60 61 65 66 66 65 64 67 71 73 73 72 72 71 71 70 67 64 61 59 58 57 58 60 63 64 61 57 53 49 46 45 44 42 42 42 40 36 33 32 32 34 37 36 33 31 31 31 31 31 31 30 29 28 27 27 27 26 25 25 24 25 25 26 26
92 90 84 86 92 94 95 95 93 91 88 85 81 79 78 78 75 71 65 63 64 65 67 70 71 71 73 76 77 77 75 73 72 72 70 68 64 59 57 58 58 58 60 63 64 63 59 56 51 48 47 46 43 42 42 41 38 35 33 32 33 36 39 38 35 33 33 32 32 33 32 31 30 29 28 28 28 28 26 24 23 24 24 25 27
91 93 92 92 96 97 96 95 94 92 89 86 83 80 77 74 74 76 73 70 69 67 69 73 76 77 78 80 80 79 76 74 73 71 69 67 62 59 59 61 61 60 63 64 63 60 58 55 52 49 47 45 43 42 41 39 37 34 32 32 34 37 40 40 38 36 35 34 34 35 35 33 32 30 29 29 29 29 27 24 24 25 26 27 29
93 94 95 96 97 97 97 96 94 93 90 87 83 80 76 74 74 78 81 80 78 75 75 77 80 81 81 82 82 79 76 73 72 70 69 66 63 63 63 62 60 61 62 61 60 58 57 54 53 50 47 44 44 42 39 37 35 34 33 33 36 39 40 42 41 39 38 36 36 37 37 35 33 31 30 30 30 30 28 25 26 27 28 30 31
95 95 97 98 98 97 97 95 92 88 85 82 80 77 74 73 74 77 82 84 84 83 83 84 85 85 85 85 82 77 74 73 72 72 70 67 66 66 64 61 60 60 58 57 58 58 56 54 53 51 47 45 44 42 38 35 34 34 33 35 38 39 40 42 43 42 40 39 38 39 39 37 34 31 30 31 32 32 30 27 27 28 29 31 32
96 96 97 97 97 96 94 92 87 79 72 69 69 70 71 72 74 78 82 85 86 87 88 89 89 88 85 81 77 74 74 73 72 72 70 68 66 63 60 59 59 57 55 56 57 57 56 54 53 51 48 46 45 41 37 35 34 34 35 38 39 38 39 41 43 44 42 41 39 39 39 37 35 32 31 32 33 33 30 28 27 28 28 30 32
96 96 95 95 94 92 90 86 82 74 65 64 65 64 66 68 71 75 80 84 87 88 90 90 89 85 79 75 72 71 71 70 70 70 67 63 59 57 58 59 56 54 55 56 56 55 55 54 52 50 50 49 44 39 37 37 36 36 38 40 38 35 38 41 43 44 42 40 39 38 39 37 35 33 33 34 35 33 29 26 26 25 25 27 32
95 93 91 90 88 86 83 77 75 70 64 66 67 64 64 66 67 71 75 78 81 83 83 82 79 75 70 69 68 68 67 68 69 65 60 57 56 59 60 57 54 54 56 56 55 54 54 54 52 51 51 48 42 38 38 38 38 40 40 38 33 33 38 42 42 42 40 39 38 38 37 36 34 33 34 35 36 34 30 28 26 25 24 25 30
90 88 86 84 81 79 74 70 70 68 64 65 64 62 65 67 66 68 72 74 74 73 72 71 69 66 66 67 67 67 67 67 63 58 56 57 60 61 59 55 55 57 57 56 55 54 55 54 53 52 50 45 42 40 39 38 40 41 39 34 33 35 39 41 40 40 40 38 37 35 34 34 33 33 35 36 36 34 31 29 27 25 26 26 29
84 82 80 78 76 74 71 68 69 70 67 65 63 63 64 64 64 66 69 71 70 67 66 65 64 65 68 70 70 68 67 63 56 54 57 60 61 61 60 60 62 60 58 57 56 55 56 55 53 51 47 44 43 43 42 41 42 40 37 35 35 35 38 40 39 38 38 36 35 33 32 33 33 33 36 37 36 34 32 29 27 26 27 27 28
78 77 75 74 72 70 69 67 67 69 71 71 70 69 66 63 63 65 68 67 65 63 63 66 68 71 72 72 70 67 64 58 54 58 63 64 64 64 65 66 65 62 59 58 57 57 56 54 52 50 48 46 46 46 46 44 42 40 38 37 35 34 36 38 37 36 36 34 33 32 31 32 33 34 36 37 37 35 33 30 29 29 28 27 28
73 73 72 71 69 68 66 66 66 67 69 72 74 73 71 69 66 67 68 64 62 64 68 71 73 73 70 68 65 62 59 58 60 65 67 67 66 66 66 66 64 62 60 58 57 57 55 54 52 50 49 47 47 47 47 46 44 41 39 38 35 33 35 38 37 36 34 32 30 30 30 31 33 34 35 37 37 36 34 31 30 29 28 28 28
69 70 69 69 67 65 64 65 66 68 69 70 73 74 73 71 69 68 67 65 67 70 72 73 71 68 66 64 62 60 60 63 67 69 70 68 67 67 66 66 64 61 60 58 57 56 55 54 52 51 50 49 49 49 48 47 44 41 40 38 35 33 36 38 38 36 34 31 28 28 30 31 33 34 35 37 38 37 35 32 30 29 28 28 28
64 66 67 66 63 62 62 66 69 69 68 68 68 68 67 67 67 68 69 71 74 73 70 68 65 63 63 63 63 63 65 68 70 72 72 71 71 71 68 66 64 61 60 58 57 56 56 55 54 53 53 53 53 52 51 47 44 41 40 38 36 34 36 39 38 37 35 33 30 30 31 32 33 34 35 37 39 38 35 32 29 29 29 28 29
62 64 65 63 60 58 57 62 70 68 64 63 63 62 63 65 67 69 71 73 73 70 65 62 61 62 64 65 66 68 70 72 74 75 76 75 75 72 69 66 63 61 59 58 57 57 56 55 54 54 54 54 54 52 50 46 43 42 41 39 37 36 37 39 39 37 36 36 33 31 32 33 34 35 36 38 40 39 36 32 29 29 30 29 28
62 62 64 63 61 61 59 60 64 63 62 62 62 64 66 67 67 68 69 69 69 66 62 60 61 63 65 68 70 71 73 75 77 78 78 75 72 69 66 64 61 59 57 57 56 55 53 52 52 52 52 52 52 51 49 46 44 44 44 42 40 39 39 40 41 39 37 37 35 31 31 34 35 36 37 39 41 40 37 35 32 30 30 29 27
60 60 60 62 63 64 65 65 62 60 63 65 66 68 69 69 68 67 67 66 65 64 63 63 64 65 67 70 71 73 75 76 76 74 71 68 66 64 62 60 57 55 54 53 53 52 51 51 50 51 51 51 51 51 50 48 47 47 46 46 44 42 41 42 43 41 39 39 37 32 30 32 35 37 39 41 43 41 39 37 35 32 32 31 27
58 58 59 61 63 63 64 68 63 60 65 68 68 69 69 69 68 67 65 65 64 64 65 66 67 68 69 70 71 73 73 71 68 66 64 62 61 61 59 57 54 52 51 51 52 51 49 48 48 49 50 50 50 51 51 50 48 48 48 48 47 43 42 43 42 41 40 39 38 35 32 33 35 38 40 43 45 43 41 39 36 34 34 33 30
56 57 59 59 60 59 61 64 58 56 60 61 62 62 61 63 63 62 62 62 63 64 65 66 67 67 68 69 70 70 68 65 64 63 62 61 60 59 57 54 52 50 49 49 49 48 46 44 45 46 46 47 48 50 50 50 48 47 47 47 46 43 42 42 42 41 40 39 39 39 37 36 36 38 41 44 46 45 43 42 40 39 36 34 33
54 55 57 59 59 56 58 61 57 55 52 49 53 53 51 54 54 55 56 57 58 58 58 59 59 60 62 64 65 65 65 64 63 61 61 60 59 57 54 51 49 47 45 46 47 46 45 42 42 45 46 46 48 49 50 49 49 48 47 46 44 42 42 43 43 40 39 39 40 40 40 39 38 38 41 45 47 47 45 43 42 43 41 37 34
51 52 55 58 59 57 57 59 57 56 50 47 52 50 47 49 48 48 49 49 50 50 51 52 53 54 57 60 62 64 63 62 60 58 57 56 55 53 51 48 46 43 42 45 47 47 44 41 42 45 46 46 46 47 48 48 47 46 45 43 42 42 43 44 44 42 41 42 41 40 40 41 40 40 40 44 48 47 46 43 42 43 43 41 37
50 51 53 57 59 58 58 59 58 57 54 53 55 52 49 48 47 47 47 47 49 50 51 52 52 54 57 60 62 62 59 56 55 53 52 50 50 50 48 45 43 43 44 47 48 47 44 42 43 45 45 45 44 44 46 46 44 44 43 42 41 43 44 45 46 44 43 42 39 37 39 41 41 40 40 43 47 47 46 43 42 43 45 44 41
50 50 52 55 58 57 56 58 59 59 59 58 57 56 54 51 50 51 51 52 53 54 54 54 54 56 59 61 60 55 52 49 49 48 46 45 46 47 46 43 43 45 47 47 47 46 45 44 45 45 45 45 44 43 44 44 43 44 45 44 43 44 45 45 43 40 40 40 38 36 38 41 41 40 41 44 46 46 46 46 44 43 45 45 44
48 49 50 53 56 56 55 55 59 60 60 60 59 58 57 55 54 53 55 56 57 57 56 55 56 59 60 59 54 49 46 44 44 43 42 41 42 44 44 44 44 47 48 48 47 47 47 47 48 46 44 44 43 43 44 44 43 44 47 48 48 46 44 41 38 36 37 38 37 36 38 40 41 40 42 44 46 45 45 46 46 45 44 44 43
46 47 48 50 52 53 53 54 58 60 60 62 62 61 60 59 58 57 58 59 60 60 59 59 59 59 57 51 47 45 42 41 40 40 39 38 39 40 42 44 45 48 50 50 48 49 49 50 51 48 45 44 43 45 46 44 41 40 41 44 46 44 41 38 36 35 37 38 38 37 39 40 41 41 42 45 47 47 45 45 45 46 46 44 42
45 46 47 48 49 50 51 54 58 61 61 62 64 65 66 65 64 63 62 62 62 62 62 61 58 55 49 43 41 40 39 39 38 38 37 36 36 36 38 41 44 47 51 53 53 52 51 50 49 47 45 46 45 46 47 44 41 39 37 39 40 39 38 37 36 36 37 38 38 38 39 40 40 41 43 45 48 48 48 46 45 45 45 46 44
46 46 47 47 48 49 50 53 57 61 62 63 65 67 69 69 69 68 66 65 64 62 60 57 52 47 41 38 38 38 38 37 36 36 36 35 34 34 35 37 40 44 48 53 56 57 55 53 50 46 45 47 47 48 48 46 44 42 40 38 37 37 37 37 36 36 37 38 38 37 38 39 39 40 42 44 47 48 47 47 46 45 45 45 46
50 49 48 49 50 51 52 53 57 60 62 63 65 66 68 69 69 69 68 66 63 60 54 49 45 42 39 38 39 39 38 36 35 35 34 34 33 33 34 35 37 39 42 47 52 55 57 58 57 54 52 50 50 50 50 50 48 47 44 38 35 36 37 37 37 37 37 37 37 36 37 37 38 38 39 42 44 45 46 47 48 48 48 46 46
50 51 50 51 52 52 52 53 55 58 60 61 62 63 64 65 66 66 64 61 57 52 47 42 40 38 39 41 40 39 38 37 35 34 33 33 33 33 34 34 35 36 38 40 43 46 50 54 57 58 58 56 56 55 55 55 52 49 44 37 34 36 38 38 38 37 37 37 36 35 34 34 35 35 37 40 41 41 42 45 47 49 50 48 46
49 51 52 53 53 53 53 53 54 56 57 58 59 60 61 63 63 60 56 52 47 43 40 38 36 36 39 41 41 39 39 38 36 34 33 32 32 33 33 33 34 34 35 36 38 39 41 44 47 49 51 52 54 55 55 53 49 45 40 35 35 37 39 39 39 38 37 37 36 35 33 33 33 34 35 39 42 41 40 40 42 46 50 51 49
48 51 52 53 54 54 54 54 55 56 56 57 58 58 59 60 58 54 49 44 40 38 36 35 36 38 40 41 40 40 40 39 37 35 33 32 32 32 33 33 33 33 33 34 35 36 37 38 40 41 43 44 45 46 46 45 44 43 39 35 37 39 39 40 40 38 37 37 37 36 36 35 35 35 36 38 41 42 40 39 39 42 46 49 50
46 49 52 53 54 55 55 56 57 57 57 57 58 57 56 55 52 47 42 37 34 34 35 37 39 42 44 43 41 40 40 40 39 37 34 32 32 32 32 32 32 32 31 32 32 33 34 36 36 37 38 39 39 40 40 40 41 43 41 38 39 41 41 42 41 40 39 38 39 39 39 39 38 37 37 38 40 40 40 39 38 40 42 45 47
44 47 49 51 53 54 55 56 56 56 56 55 54 53 51 49 46 42 39 37 35 35 36 38 41 44 45 44 41 40 40 40 40 38 36 34 32 32 32 32 31 31 31 31 31 32 33 34 35 35 36 36 36 36 37 39 40 42 43 42 42 42 42 43 42 40 40 41 41 41 41 42 41 39 37 37 39 40 40 39 39 39 41 43 44
44 46 48 49 50 50 51 52 53 52 52 51 51 50 49 47 45 45 45 43 39 37 37 39 42 45 45 43 41 39 38 39 39 39 37 35 34 33 33 32 32 32 32 31 31 31 32 32 33 34 34 34 34 35 35 37 39 42 44 44 44 45 44 44 43 40 41 42 42 41 42 43 44 42 39 37 39 41 40 40 41 41 42 43 44
41 43 45 46 47 47 47 48 49 49 49 49 48 48 47 48 48 49 50 47 41 38 39 40 44 46 44 42 39 38 37 38 39 39 38 36 35 34 34 33 32 32 32 32 31 31 31 31 32 33 34 34 34 34 34 36 38 41 45 46 45 46 46 46 45 42 42 42 41 40 41 42 44 44 41 38 38 41 43 43 43 43 43 43 45
Wind_Direction
289 289 289 290 291 291 292 292 293 293 294 294 295 296 296 297 297 298 298 298 299 299 299 299 298 298 298 297 297 297 297 297 296 296 296 296 298 299 299 299 300 302 303 303 303 304 304 304 304 304 304 305 305 305 305 305 305 305 305 306 307 307 307 307 306 306 306 306 305 304 303 303 303 301 298 297 295 295 291 282 277 277 278 277 272
288 289 289 290 290 291 291 291 292 292 293 293 294 295 295 296 296 296 297 297 297 297 297 297 297 296 296 295 295 296 296 295 296 296 296 296 297 298 299 299 300 302 302 302 303 303 303 303 303 303 304 304 304 304 304 304 304 304 305 306 306 306 306 305 305 305 305 303 303 302 301 301 300 298 296 294 292 291 285 276 274 276 277 276 271
286 287 288 289 289 289 290 290 291 291 292 292 293 294 294 295 295 295 296 296 296 296 296 296 295 295 294 294 293 294 294 295 296 297 296 296 297 297 298 299 300 301 301 302 302 303 303 302 303 302 303 303 303 303 303 303 303 304 305 306 306 305 305 304 304 303 302 301 301 300 299 299 296 295 292 290 290 287 279 272 272 274 275 274 268
286 287 287 288 288 288 289 290 290 291 291 292 292 293 293 294 294 294 295 295 295 295 295 295 294 294 294 292 292 292 292 294 296 296 296 297 298 298 298 299 300 300 301 301 302 302 302 302 302 302 302 302 302 302 302 303 303 304 305 305 305 304 303 303 303 301 300 299 298 297 296 294 292 291 287 286 286 281 274 270 270 272 273 270 265
286 287 287 287 288 289 289 290 290 291 291 292 292 292 293 293 293 294 294 294 294 294 294 293 292 292 292 291 291 291 292 293 294 295 296 297 298 298 298 299 299 299 300 301 302 302 301 301 301 301 300 301 301 301 302 302 302 303 305 305 304 303 302 302 300 298 297 297 296 294 291 288 287 285 281 281 280 274 270 268 268 269 270 267 261
287 287 288 288 289 289 290 291 291 291 291 291 291 292 292 293 294 293 293 292 293 293 292 291 290 291 291 290 290 291 292 293 294 295 296 297 298 298 298 298 298 299 301 301 301 301 300 300 300 300 299 299 300 300 301 301 302 303 304 304 302 301 301 299 297 296 295 295 293 289 285 284 284 280 276 277 273 268 265 265 265 268 269 264 258
288 288 288 289 289 290 290 290 291 290 290 290 290 291 292 293 294 295 295 293 292 293 291 290 291 290 290 290 291 291 292 293 295 296 297 298 297 297 297 297 298 300 301 300 300 300 299 299 299 298 298 298 299 300 300 301 302 303 303 302 301 300 299 297 295 295 294 294 289 285 282 283 281 275 273 273 269 264 262 261 261 264 265 261 255
290 289 289 289 289 289 290 290 291 292 293 294 292 291 293 295 296 297 298 296 292 292 291 290 292 291 291 292 291 290 291 295 297 298 299 298 297 296 296 296 298 299 300 299 299 299 298 298 297 297 297 297 298 299 300 302 303 303 302 301 299 298 297 295 294 293 294 291 285 283 283 282 278 272 270 268 264 261 259 256 255 260 262 258 253
289 289 290 290 289 289 290 292 293 294 297 297 295 292 294 297 298 297 299 299 294 289 286 288 291 290 291 293 290 288 291 295 297 298 299 298 296 295 295 296 298 299 299 298 298 297 297 296 295 295 296 297 298 300 301 302 302 301 300 299 298 297 295 293 292 293 292 286 281 281 282 279 274 269 267 264 258 256 256 251 248 255 259 256 253
284 285 286 287 286 286 288 290 289 290 295 294 290 289 291 294 293 294 296 298 295 290 285 286 288 285 287 290 287 287 291 293 296 298 298 296 294 294 295 296 297 297 298 297 297 296 295 294 294 295 296 297 300 301 301 301 300 299 298 298 297 295 293 291 292 293 289 280 278 280 279 276 270 266 264 260 254 251 251 247 241 248 258 258 255
281 282 282 282 280 280 282 283 283 284 287 288 286 286 289 289 289 292 294 294 292 290 287 286 286 283 284 286 285 286 290 292 296 297 296 294 293 294 296 296 296 297 297 296 295 294 293 293 293 294 296 299 300 301 300 299 298 297 297 296 295 293 289 289 293 291 283 277 277 278 278 273 267 264 262 258 252 247 246 243 243 251 262 266 262
283 283 281 281 280 279 280 280 280 281 282 284 284 285 286 286 288 292 292 290 289 287 285 284 283 282 282 283 285 288 290 292 295 296 295 293 293 294 294 294 295 296 296 294 293 292 291 292 293 296 298 299 300 299 298 297 296 295 295 294 292 289 286 290 292 287 279 276 277 279 277 270 264 262 260 255 250 247 243 240 247 255 261 266 269
284 283 281 282 283 284 284 283 283 284 283 285 284 283 285 286 290 293 291 287 284 281 280 279 279 279 280 283 287 289 290 292 294 295 294 293 293 293 293 294 295 295 294 292 291 290 291 292 295 297 297 298 298 297 295 294 293 294 293 291 288 284 285 290 289 283 277 275 278 278 273 267 263 260 257 252 247 245 241 237 242 249 253 259 263
282 281 282 283 283 283 284 283 285 286 285 286 285 285 286 289 293 293 288 282 277 276 275 275 277 279 282 285 287 289 292 293 294 294 293 294 293 293 293 294 294 293 292 290 289 290 292 295 296 296 296 297 296 295 294 293 292 292 290 287 283 281 286 289 284 279 275 277 282 277 270 266 262 259 255 250 244 242 238 235 241 246 246 251 256
281 282 284 284 282 282 281 280 283 284 284 285 286 287 286 288 291 287 280 276 273 273 273 275 277 280 283 285 288 292 293 293 293 294 294 294 294 294 294 293 292 291 289 288 288 291 294 296 296 296 295 295 295 294 293 292 291 289 287 283 277 280 287 286 281 277 275 280 284 275 268 266 263 259 254 249 243 240 235 230 236 242 241 245 250
280 282 284 283 281 282 283 283 283 282 282 283 282 282 282 283 286 280 273 271 270 270 273 276 279 281 282 286 291 293 293 292 293 293 294 294 294 294 293 292 291 288 287 288 291 293 295 295 295 295 294 294 294 294 292 292 290 286 284 277 274 282 286 282 279 276 274 281 283 273 268 267 263 260 254 248 243 239 235 228 227 230 233 237 244
280 279 278 277 278 281 282 284 284 283 282 280 277 275 276 279 280 276 272 271 271 271 273 277 280 280 282 288 292 293 293 292 292 293 294 294 293 293 292 291 289 287 287 290 293 294 294 294 294 293 293 294 294 293 293 291 287 283 280 273 274 284 285 280 278 275 274 280 281 272 268 267 264 260 253 247 242 236 233 229 226 226 230 234 240
279 278 276 277 279 281 281 282 283 283 282 281 278 275 274 275 275 273 272 272 274 275 276 278 279 279 282 289 293 293 291 291 291 292 293 292 291 290 291 289 287 287 289 292 293 294 294 294 293 292 293 293 292 293 293 289 284 281 276 271 276 285 285 280 277 275 274 279 280 272 268 268 264 258 251 245 241 234 227 225 228 230 234 238 242
279 279 278 279 281 281 281 281 282 282 282 281 280 277 275 273 271 270 270 272 275 276 277 278 279 280 284 289 291 291 290 290 290 291 291 290 288 288 289 288 286 287 290 292 292 292 293 293 292 291 292 291 291 293 292 286 281 277 273 271 279 285 284 279 276 275 275 278 280 273 269 270 265 256 248 243 240 232 222 221 228 233 237 241 244
278 279 279 279 280 281 281 281 282 282 282 281 279 277 275 273 271 270 269 270 273 274 276 278 279 281 284 288 289 288 288 289 289 289 289 288 286 287 289 287 286 288 290 290 291 291 291 291 290 291 290 289 291 292 288 281 276 273 270 271 280 284 281 276 274 275 276 278 279 273 269 270 266 255 246 241 237 228 218 217 225 231 235 239 241
278 279 279 279 280 280 281 281 282 283 282 280 279 276 273 271 269 269 268 268 270 272 275 277 278 280 283 285 286 286 287 287 287 287 287 286 285 286 287 285 286 289 289 289 290 290 289 288 288 289 287 288 291 290 284 276 271 269 268 272 281 283 280 276 274 276 277 278 278 273 268 269 264 252 243 239 235 227 216 215 221 227 233 236 235
279 279 279 280 280 280 281 281 282 283 282 281 281 278 274 270 268 267 266 267 269 271 273 275 277 279 281 283 284 285 286 286 286 286 286 286 286 286 285 285 286 287 287 288 289 288 287 286 286 286 285 287 289 285 279 272 267 267 270 278 283 280 278 276 275 277 278 278 277 272 267 267 260 248 240 236 233 227 217 215 219 225 231 233 231
278 278 279 279 279 280 280 280 279 279 279 280 282 280 276 274 272 270 268 268 269 270 272 274 276 278 280 282 284 285 285 285 286 287 287 286 286 285 285 285 285 286 287 288 288 287 286 285 284 283 284 286 285 280 274 269 266 268 277 284 283 277 277 277 277 278 278 277 276 271 266 263 256 246 238 234 230 224 215 214 219 225 230 233 229
278 278 278 278 278 278 278 278 276 276 277 278 279 278 277 276 275 274 272 271 271 272 273 274 277 279 280 283 284 285 286 286 286 286 285 285 284 286 286 284 283 285 287 287 286 286 285 284 282 282 284 284 280 276 271 267 267 273 281 284 278 276 279 278 277 276 276 276 275 271 265 259 252 244 238 234 230 223 213 210 216 222 231 235 230
277 277 276 276 275 275 274 272 271 271 274 275 275 275 276 275 273 273 273 272 272 273 275 277 278 279 280 283 285 285 286 286 285 284 284 285 286 287 285 282 283 286 286 284 283 283 284 283 281 282 283 280 276 272 268 265 269 277 282 279 272 277 282 278 275 275 275 275 274 270 264 257 251 243 237 234 230 222 212 208 213 220 229 235 234
275 274 273 273 272 272 271 269 267 266 267 269 270 272 274 272 270 271 272 272 272 273 275 277 278 279 281 284 285 285 286 284 282 283 287 289 288 286 284 284 285 286 284 282 280 280 281 280 280 281 279 275 272 269 265 265 271 277 279 274 272 279 281 277 275 274 274 274 273 270 264 256 249 241 236 234 230 219 209 208 215 222 228 233 235
272 271 270 270 269 269 269 268 266 264 264 265 266 268 270 270 269 269 271 271 270 272 275 277 280 283 285 285 285 285 284 281 279 283 290 292 289 287 286 286 286 285 283 280 278 278 278 277 278 278 275 273 270 267 265 267 272 275 277 272 272 279 277 275 276 273 272 273 273 270 264 255 247 240 235 234 229 217 209 211 218 223 227 231 234
268 267 267 267 267 267 267 266 265 264 264 264 264 266 267 268 269 269 269 269 270 273 278 281 285 287 286 285 284 282 280 278 280 285 291 294 292 289 287 286 285 284 282 279 277 276 275 275 275 274 272 270 268 267 266 269 272 273 275 270 270 276 274 274 274 270 270 270 270 268 263 255 247 240 234 233 227 215 211 215 219 223 226 230 235
266 265 265 264 264 264 264 263 263 263 263 264 265 265 265 267 269 267 266 268 273 278 283 285 287 286 285 283 281 279 280 281 283 287 292 294 293 292 289 286 284 282 280 278 276 274 273 273 273 271 268 267 267 267 268 270 271 272 272 267 267 272 270 271 271 268 267 265 265 266 262 255 248 241 235 231 223 214 213 215 218 222 226 230 235
265 264 262 262 262 263 264 262 261 262 262 263 264 264 264 266 267 265 265 272 278 283 285 285 284 283 281 280 279 279 282 285 286 289 292 293 293 292 289 285 282 280 278 276 274 272 272 271 271 269 266 265 266 268 269 269 269 269 267 264 265 268 266 267 267 267 266 262 261 264 263 256 248 240 234 228 220 215 214 214 218 223 226 231 236
262 260 260 259 258 258 259 259 258 259 259 258 258 260 262 263 265 266 271 277 281 283 283 281 280 279 278 278 279 281 285 287 288 290 291 291 291 290 287 282 280 278 276 274 273 272 271 270 270 268 265 265 266 267 267 266 265 264 262 262 265 266 263 263 265 267 266 263 260 262 262 255 248 240 233 225 218 215 214 214 219 226 229 232 236
260 258 258 257 254 251 250 253 255 254 253 253 255 258 261 263 267 271 276 279 281 281 280 279 279 278 277 277 279 282 285 287 289 290 290 290 289 288 284 280 277 276 274 273 272 271 270 270 269 267 266 265 264 263 262 262 261 260 260 262 265 266 264 263 264 267 267 265 262 260 260 253 246 241 232 223 216 215 215 214 215 222 230 233 234
259 257 256 255 253 250 247 248 252 252 252 255 257 260 264 268 272 275 277 278 278 278 278 278 278 277 277 277 279 282 286 288 289 290 290 289 288 286 283 279 276 274 272 271 270 270 270 270 270 268 266 264 262 260 259 260 259 258 259 263 266 264 262 263 264 266 266 264 261 260 261 254 244 238 232 223 216 215 217 215 212 215 225 230 231
257 255 254 253 253 251 246 244 251 255 255 258 261 263 267 271 274 275 276 277 277 277 277 277 277 278 278 277 279 284 288 289 290 290 289 288 287 285 281 278 275 272 271 269 269 269 270 271 269 267 264 263 261 259 259 259 257 257 259 263 263 260 260 261 263 265 263 261 260 259 262 259 247 237 232 223 216 215 216 216 212 213 221 227 229
252 252 250 249 250 250 245 243 250 256 258 260 263 266 268 270 272 272 273 274 274 275 275 275 277 277 278 279 282 286 289 289 289 289 287 286 285 282 279 276 273 271 270 268 268 269 270 270 267 264 262 261 260 259 258 258 258 258 260 261 258 257 258 258 260 263 260 257 258 259 260 260 252 239 232 224 217 216 216 217 215 212 215 223 232
248 248 247 245 246 248 246 244 248 254 258 261 262 264 267 268 269 269 270 271 272 274 274 275 277 278 280 282 285 288 289 289 289 287 285 284 282 279 276 273 272 270 267 264 264 267 269 267 263 262 261 260 258 257 256 257 258 260 261 259 256 256 257 256 258 260 258 256 257 258 257 256 253 242 233 226 219 216 217 220 220 216 212 215 227
245 244 243 242 243 247 247 245 247 250 254 258 259 262 266 266 267 269 269 271 273 275 278 280 282 284 285 286 288 290 290 290 288 286 283 282 279 277 274 272 269 266 260 258 260 265 266 263 261 260 259 258 257 256 255 256 259 259 259 256 254 256 257 255 256 259 261 261 258 255 253 252 250 241 233 226 220 218 218 222 225 222 218 213 218
242 241 240 240 241 245 247 247 246 247 251 255 257 260 264 266 267 268 269 271 273 275 279 283 286 288 289 290 291 291 290 289 287 284 282 280 278 276 273 269 265 261 258 257 261 264 261 259 258 257 257 256 257 257 256 257 258 258 256 254 254 256 256 255 257 261 263 260 255 252 250 248 245 240 234 226 220 219 220 223 227 227 225 221 216
242 240 240 239 239 241 244 246 245 246 249 253 255 257 262 267 269 270 271 271 272 274 278 282 285 288 290 291 291 289 288 287 285 284 282 281 278 275 271 264 258 257 259 259 260 259 256 257 258 257 258 256 257 259 258 258 258 257 256 256 258 259 258 258 259 259 256 251 249 248 247 246 242 237 234 228 222 221 223 225 228 229 228 226 222
241 241 240 240 240 241 243 244 244 245 248 251 254 258 261 266 270 273 274 274 274 276 279 282 284 287 290 290 289 287 286 285 284 284 283 281 277 273 269 262 254 253 256 258 256 253 254 258 259 258 258 256 256 259 259 259 260 260 259 259 260 261 259 258 256 252 247 245 246 245 244 243 239 235 233 230 226 224 225 227 229 230 229 228 228
241 241 241 241 242 244 245 244 243 245 249 251 255 258 260 263 266 270 274 275 277 278 281 283 285 287 288 288 288 287 287 287 286 285 284 282 278 273 269 263 255 250 251 253 251 251 256 259 259 259 257 256 257 258 257 258 261 265 265 261 259 258 256 253 250 248 245 243 244 243 243 242 239 235 231 230 228 225 225 227 230 232 231 231 231
239 241 243 243 245 247 247 245 244 246 250 254 257 259 260 260 262 265 269 273 276 280 283 284 286 286 286 287 289 289 290 291 290 289 288 286 282 276 270 265 259 253 250 250 250 252 257 258 257 257 255 255 255 255 255 257 262 269 269 262 257 254 251 249 247 245 243 241 241 242 244 244 242 238 233 230 229 227 225 226 229 230 230 231 231
238 239 242 244 246 247 248 247 246 248 252 257 261 262 262 262 262 264 267 270 274 279 283 285 285 285 286 291 295 294 293 294 295 295 293 291 287 281 274 267 262 258 254 252 251 252 254 254 253 254 253 252 251 252 255 259 263 267 268 261 254 250 247 244 242 240 240 239 238 240 243 245 244 241 236 233 232 231 229 228 229 228 227 229 230
238 240 242 245 246 247 249 249 250 251 254 259 262 265 266 266 266 267 269 271 274 278 281 282 283 283 286 294 299 296 293 294 296 297 296 294 290 285 279 272 265 260 257 255 253 252 252 250 251 253 253 252 249 250 255 261 264 265 265 259 249 244 242 239 236 235 235 234 234 237 241 244 246 243 239 235 233 233 233 232 231 229 227 227 230
239 241 244 246 248 249 251 252 253 254 257 260 264 266 268 269 269 270 272 274 276 277 277 278 281 283 287 294 298 296 293 292 293 295 296 294 292 287 282 276 271 266 261 258 255 254 252 251 252 254 255 254 252 252 255 260 262 261 258 252 242 238 237 234 231 230 229 228 229 234 239 243 245 244 241 237 234 233 234 235 234 232 229 228 230
242 242 244 246 248 250 252 254 255 257 259 261 264 267 269 270 271 272 274 275 274 273 273 277 282 286 291 295 295 294 293 290 290 292 294 294 292 289 284 279 275 271 267 264 261 259 257 255 255 256 256 256 255 254 255 256 255 251 248 242 235 232 234 232 228 227 227 225 227 231 237 240 242 244 242 239 235 233 233 235 236 235 233 231 232
244 244 245 247 249 250 252 254 256 258 260 262 264 267 270 271 272 273 274 273 273 274 276 282 288 291 295 296 293 293 292 289 286 287 290 293 292 290 287 283 278 273 270 268 266 264 262 260 258 257 256 256 254 253 252 250 245 241 239 236 230 229 231 231 228 227 229 229 229 232 235 236 238 241 243 241 237 235 235 236 236 237 236 234 234
247 247 247 248 250 251 252 254 256 258 261 263 264 266 269 271 272 272 271 270 272 276 280 286 290 293 293 292 290 290 290 287 284 283 285 288 290 290 288 285 280 276 272 269 267 266 264 262 260 258 256 255 253 251 249 246 241 237 235 233 230 229 230 230 228 229 232 234 234 235 237 236 235 237 241 243 241 238 238 237 236 236 237 237 236
251 251 250 250 250 251 253 254 256 258 260 262 264 265 267 269 270 267 264 262 265 272 278 283 288 291 290 287 285 287 286 283 281 280 281 283 286 288 288 286 281 276 271 268 266 265 264 262 261 259 257 255 253 251 248 244 240 236 234 233 232 230 230 230 229 231 235 237 237 238 239 239 238 237 238 240 241 240 239 239 238 237 237 238 236
251 252 253 252 252 252 254 255 256 258 259 261 263 264 265 265 264 262 261 261 263 268 275 281 286 288 285 281 281 283 282 279 277 277 278 280 282 285 286 285 282 277 273 268 266 264 263 262 261 260 258 256 254 252 248 244 240 235 233 233 234 232 231 230 230 232 236 238 239 240 240 240 240 240 238 237 238 240 240 241 241 240 239 239 237
250 252 253 255 255 255 255 256 257 258 259 260 261 262 263 263 263 264 266 265 262 266 274 280 284 283 280 277 279 280 278 276 274 272 273 275 277 280 283 284 283 280 276 272 268 265 263 263 262 261 259 257 255 253 250 247 243 237 233 232 234 234 232 230 231 233 236 238 239 242 243 242 242 241 240 237 236 238 239 240 241 241 240 240 240
Height
10894 10894 10893 10892 10892 10891 10890 10890 10888 10886 10884 10882 10880 10879 10878 10877 10877 10876 10876 10875 10875 10875 10876 10875 10875 10873 10872 10871 10869 10868 10867 10867 10867 10866 10865 10864 10862 10861 10860 10859 10858 10857 10856 10854 10853 10852 10851 10849 10848 10847 10846 10846 10846 10845 10844 10844 10842 10839 10838 10837 10835 10833 10831 10829 10827 10825 10824 10822 10821 10819 10816 10815 10813 10812 10811 10810 10810 10810 10810 10809 10808 10808 10808 10808 10808
10889 10888 10887 10887 10886 10885 10884 10884 10882 10881 10879 10877 10875 10875 10874 10872 10872 10871 10871 10870 10870 10870 10870 10870 10869 10868 10866 10865 10864 10863 10862 10861 10861 10861 10860 10859 10858 10856 10855 10854 10854 10853 10851 10850 10849 10848 10846 10845 10844 10843 10842 10841 10841 10841 10840 10839 10837 10835 10834 10833 10831 10829 10827 10825 10823 10821 10820 10819 10817 10815 10814 10812 10810 10809 10808 10807 10807 10807 10807 10807 10806 10806 10805 10806 10806
10886 10883 10882 10881 10881 10880 10879 10878 10877 10875 10873 10872 10871 10870 10869 10867 10866 10866 10866 10866 10865 10865 10864 10864 10863 10862 10860 10859 10858 10858 10857 10856 10856 10855 10855 10854 10853 10852 10850 10849 10849 10848 10847 10845 10844 10843 10842 10841 10839 10838 10837 10837 10837 10837 10836 10834 10832 10831 10830 10829 10826 10824 10822 10821 10819 10817 10816 10815 10814 10812 10811 10809 10807 10806 10805 10805 10804 10804 10804 10804 10804 10804 10803 10804 10804
10882 10879 10877 10876 10875 10874 10873 10872 10871 10870 10868 10867 10866 10865 10864 10862 10861 10861 10861 10861 10860 10859 10859 10858 10857 10855 10854 10853 10853 10853 10853 10852 10851 10850 10849 10849 10848 10847 10846 10844 10843 10843 10842 10841 10839 10839 10837 10836 10835 10833 10833 10832 10832 10832 10831 10829 10828 10827 10826 10824 10822 10820 10818 10817 10815 10813 10812 10811 10810 10809 10807 10806 10804 10803 10803 10802 10801 10801 10801 10801 10801 10801 10801 10802 10802
10877 10874 10871 10870 10869 10868 10867 10867 10865 10864 10863 10861 10860 10859 10858 10856 10855 10855 10855 10855 10854 10853 10852 10851 10850 10849 10848 10847 10847 10847 10848 10848 10847 10846 10844 10843 10843 10842 10841 10840 10838 10838 10838 10837 10835 10834 10833 10831 10829 10828 10828 10828 10828 10828 10827 10825 10824 10823 10822 10820 10817 10815 10813 10812 10811 10809 10808 10807 10806 10805 10804 10802 10801 10800 10800 10799 10799 10798 10798 10799 10799 10799 10799 10800 10800
10871 10868 10865 10863 10862 10862 10861 10860 10859 10858 10857 10855 10854 10853 10852 10851 10850 10849 10849 10848 10847 10846 10845 10844 10843 10843 10842 10842 10842 10842 10843 10843 10843 10842 10840 10838 10837 10837 10837 10836 10834 10833 10833 10832 10830 10829 10827 10826 10824 10823 10823 10823 10824 10823 10822 10821 10819 10818 10817 10815 10812 10810 10809 10807 10806 10805 10805 10804 10802 10801 10800 10799 10798 10797 10797 10796 10796 10796 10796 10796 10796 10797 10797 10798 10798
10865 10862 10859 10857 10855 10854 10854 10853 10852 10851 10850 10849 10848 10847 10846 10845 10844 10842 10842 10842 10841 10839 10838 10838 10837 10837 10837 10837 10837 10838 10838 10838 10838 10837 10836 10834 10832 10832 10832 10832 10830 10829 10828 10826 10825 10824 10822 10821 10819 10818 10818 10819 10819 10818 10817 10816 10814 10813 10812 10810 10808 10805 10804 10803 10802 10802 10802 10800 10798 10797 10797 10797 10795 10794 10794 10793 10793 10793 10793 10793 10794 10795 10795 10796 10796
10857 10854 10852 10850 10848 10847 10847 10846 10846 10845 10844 10843 10841 10841 10841 10840 10838 10837 10836 10836 10835 10834 10832 10832 10832 10832 10832 10832 10833 10833 10834 10834 10833 10833 10832 10830 10828 10827 10827 10827 10825 10824 10823 10822 10820 10818 10817 10815 10814 10813 10813 10814 10814 10813 10812 10811 10809 10808 10807 10805 10803 10801 10799 10799 10799 10798 10798 10797 10795 10794 10794 10794 10793 10792 10791 10790 10790 10790 10791 10791 10791 10792 10793 10793 10794
10851 10845 10845 10843 10842 10841 10841 10841 10841 10841 10840 10838 10837 10835 10835 10834 10832 10831 10830 10830 10829 10828 10827 10826 10827 10827 10827 10827 10828 10828 10828 10829 10828 10828 10827 10826 10824 10822 10822 10821 10820 10819 10818 10817 10815 10813 10811 10810 10809 10808 10808 10809 10810 10808 10807 10806 10805 10803 10802 10800 10798 10796 10795 10795 10795 10795 10795 10794 10791 10790 10790 10790 10790 10789 10788 10788 10787 10787 10788 10788 10789 10790 10791 10791 10792
10846 10838 10839 10838 10837 10836 10837 10837 10836 10836 10835 10834 10832 10830 10829 10827 10826 10825 10825 10824 10824 10823 10822 10821 10822 10822 10822 10822 10822 10822 10822 10823 10823 10823 10822 10822 10820 10818 10816 10815 10815 10814 10813 10811 10810 10808 10806 10805 10804 10803 10803 10804 10804 10803 10801 10800 10800 10799 10797 10795 10794 10792 10791 10791 10791 10791 10791 10790 10788 10787 10786 10787 10787 10786 10785 10785 10785 10785 10785 10786 10787 10788 10788 10789 10790
10842 10836 10832 10830 10830 10831 10832 10832 10831 10830 10830 10829 10826 10824 10822 10821 10820 10820 10819 10819 10818 10818 10817 10816 10816 10816 10817 10817 10817 10816 10816 10817 10817 10818 10818 10817 10816 10814 10812 10810 10809 10808 10807 10806 10804 10803 10802 10801 10799 10798 10798 10798 10799 10798 10796 10795 10795 10794 10792 10791 10790 10788 10787 10787 10788 10788 10787 10786 10784 10783 10783 10783 10783 10783 10783 10782 10782 10782 10782 10783 10784 10785 10786 10787 10787
10835 10832 10824 10820 10820 10822 10825 10825 10824 10824 10824 10823 10821 10818 10816 10815 10815 10814 10813 10812 10812 10812 10811 10810 10810 10811 10811 10811 10811 10811 10811 10811 10812 10812 10812 10812 10811 10810 10808 10806 10804 10802 10801 10800 10798 10797 10797 10796 10795 10794 10793 10793 10793 10792 10791 10791 10790 10789 10788 10787 10786 10784 10783 10784 10784 10784 10783 10783 10781 10780 10780 10780 10780 10780 10780 10779 10779 10779 10779 10780 10781 10783 10784 10784 10785
10827 10824 10817 10815 10814 10814 10816 10816 10816 10817 10817 10815 10813 10812 10810 10809 10808 10807 10806 10805 10805 10805 10805 10805 10805 10805 10805 10805 10805 10805 10805 10805 10806 10807 10807 10806 10806 10805 10803 10801 10799 10797 10795 10795 10793 10792 10792 10791 10790 10789 10788 10787 10788 10787 10786 10786 10786 10785 10784 10783 10782 10780 10779 10780 10781 10780 10780 10779 10778 10777 10776 10776 10776 10776 10777 10777 10776 10776 10776 10777 10778 10779 10781 10782 10783
10821 10816 10812 10810 10809 10809 10810 10808 10809 10810 10808 10806 10805 10805 10804 10803 10802 10800 10799 10799 10798 10798 10799 10799 10800 10800 10800 10800 10800 10800 10800 10800 10800 10801 10801 10800 10800 10799 10798 10796 10794 10792 10790 10789 10788 10787 10787 10786 10785 10783 10782 10782 10783 10783 10782 10782 10782 10781 10780 10779 10778 10776 10774 10775 10777 10777 10776 10775 10774 10774 10773 10773 10773 10773 10773 10774 10773 10773 10773 10774 10775 10776 10778 10779 10780
10816 10813 10808 10801 10801 10802 10803 10804 10803 10802 10799 10799 10799 10799 10798 10797 10797 10795 10795 10793 10793 10793 10793 10794 10794 10795 10794 10794 10795 10795 10795 10795 10795 10795 10795 10795 10794 10793 10792 10790 10789 10787 10785 10783 10783 10782 10782 10781 10780 10778 10777 10778 10779 10779 10778 10777 10778 10778 10777 10775 10774 10772 10770 10771 10774 10774 10773 10772 10771 10770 10769 10769 10770 10769 10769 10770 10770 10770 10770 10771 10772 10774 10775 10776 10777
10812 10815 10806 10790 10792 10795 10795 10796 10795 10795 10793 10794 10795 10794 10792 10792 10792 10791 10789 10788 10787 10787 10787 10788 10788 10788 10788 10789 10790 10790 10790 10790 10790 10790 10789 10789 10788 10786 10785 10784 10783 10781 10779 10777 10777 10777 10777 10776 10775 10773 10773 10773 10774 10775 10774 10773 10774 10774 10773 10772 10771 10769 10766 10767 10770 10770 10770 10769 10768 10766 10766 10766 10766 10766 10766 10767 10767 10767 10767 10768 10769 10770 10771 10773 10774
10806 10813 10805 10784 10785 10791 10788 10786 10784 10785 10786 10787 10788 10788 10787 10786 10787 10785 10784 10783 10782 10781 10781 10781 10781 10781 10782 10783 10784 10785 10785 10785 10785 10785 10784 10783 10782 10781 10780 10778 10777 10776 10774 10772 10771 10770 10770 10771 10770 10769 10769 10769 10770 10770 10769 10769 10769 10770 10769 10768 10767 10765 10762 10763 10765 10766 10767 10766 10764 10763 10762 10763 10763 10763 10763 10763 10764 10764 10765 10765 10766 10767 10768 10769 10770
10796 10800 10798 10783 10778 10782 10780 10778 10776 10776 10777 10778 10779 10780 10780 10780 10781 10780 10779 10778 10777 10775 10774 10774 10774 10775 10775 10777 10778 10779 10780 10780 10780 10780 10779 10778 10777 10776 10775 10773 10772 10771 10769 10767 10766 10765 10764 10765 10765 10765 10765 10765 10765 10765 10765 10765 10765 10766 10766 10766 10765 10762 10758 10758 10761 10762 10763 10763 10762 10760 10759 10759 10760 10760 10760 10760 10761 10761 10761 10762 10763 10764 10765 10766 10767
10788 10785 10786 10779 10771 10771 10770 10768 10768 10767 10768 10769 10771 10771 10772 10773 10773 10773 10773 10772 10771 10769 10768 10767 10767 10768 10769 10771 10772 10773 10774 10774 10775 10775 10774 10772 10772 10771 10770 10769 10768 10767 10765 10763 10761 10760 10759 10759 10760 10760 10760 10760 10760 10761 10761 10761 10761 10762 10763 10763 10762 10759 10755 10753 10755 10758 10759 10760 10759 10756 10755 10756 10756 10757 10756 10756 10757 10757 10758 10759 10760 10761 10762 10763 10764
10780 10776 10774 10771 10765 10763 10761 10759 10759 10759 10760 10761 10762 10763 10764 10765 10766 10766 10765 10765 10764 10763 10762 10761 10761 10762 10763 10765 10766 10767 10768 10768 10769 10769 10768 10767 10766 10765 10765 10764 10763 10763 10761 10758 10757 10756 10755 10754 10754 10755 10755 10755 10756 10756 10757 10757 10757 10758 10759 10760 10759 10756 10753 10750 10750 10753 10755 10757 10756 10753 10752 10752 10753 10753 10753 10753 10753 10754 10755 10755 10757 10758 10759 10760 10761
10771 10768 10765 10762 10759 10756 10753 10752 10752 10752 10752 10752 10753 10755 10756 10757 10758 10758 10758 10758 10757 10757 10755 10754 10754 10755 10757 10759 10760 10761 10762 10762 10762 10762 10761 10761 10760 10760 10760 10759 10759 10758 10757 10754 10752 10751 10750 10749 10748 10749 10750 10751 10751 10752 10753 10753 10753 10754 10755 10757 10756 10753 10749 10746 10746 10748 10751 10753 10753 10750 10748 10749 10749 10750 10751 10750 10750 10750 10751 10752 10753 10755 10756 10757 10758
10762 10760 10756 10753 10750 10749 10748 10746 10746 10746 10746 10746 10747 10748 10749 10750 10751 10751 10751 10750 10750 10750 10749 10748 10748 10749 10751 10753 10754 10755 10755 10756 10755 10755 10754 10754 10754 10755 10754 10754 10754 10753 10752 10750 10748 10747 10746 10745 10744 10744 10745 10746 10747 10748 10749 10749 10750 10750 10751 10753 10753 10750 10745 10743 10743 10744 10746 10748 10749 10747 10745 10745 10745 10746 10747 10747 10747 10748 10748 10749 10751 10752 10753 10754 10755
10751 10750 10749 10745 10742 10741 10741 10740 10740 10741 10740 10741 10742 10742 10744 10745 10745 10745 10744 10743 10742 10743 10742 10741 10742 10744 10746 10747 10748 10748 10748 10749 10749 10748 10748 10748 10749 10749 10749 10749 10749 10748 10747 10746 10744 10742 10741 10740 10740 10740 10740 10741 10742 10744 10745 10745 10746 10747 10747 10748 10749 10746 10742 10740 10739 10740 10741 10743 10744 10744 10741 10741 10741 10742 10744 10744 10744 10744 10745 10747 10748 10750 10751 10752 10753
10741 10742 10741 10738 10735 10734 10733 10733 10734 10735 10735 10735 10736 10738 10739 10739 10739 10738 10736 10735 10736 10736 10735 10736 10737 10739 10740 10741 10741 10741 10741 10742 10742 10742 10741 10742 10744 10744 10743 10744 10744 10743 10742 10741 10740 10738 10736 10735 10735 10735 10736 10736 10737 10739 10741 10742 10742 10743 10743 10744 10744 10743 10738 10736 10736 10736 10736 10738 10740 10740 10738 10737 10738 10739 10740 10740 10741 10741 10742 10743 10745 10746 10748 10749 10750
10734 10733 10732 10731 10729 10727 10727 10728 10728 10729 10729 10729 10730 10732 10733 10733 10732 10731 10729 10729 10730 10730 10729 10730 10732 10734 10734 10735 10735 10735 10734 10735 10736 10736 10736 10738 10739 10738 10738 10738 10738 10738 10737 10736 10735 10734 10732 10731 10730 10730 10731 10731 10732 10734 10736 10737 10738 10738 10739 10740 10741 10739 10734 10732 10732 10732 10732 10734 10735 10736 10735 10734 10734 10736 10736 10737 10738 10738 10739 10740 10741 10743 10744 10746 10747
10727 10725 10723 10723 10721 10721 10721 10722 10723 10723 10723 10723 10724 10726 10726 10726 10725 10724 10722 10722 10723 10724 10724 10724 10726 10727 10728 10728 10729 10729 10728 10728 10729 10730 10731 10733 10733 10732 10733 10732 10732 10732 10731 10730 10729 10729 10728 10726 10725 10725 10726 10726 10727 10728 10730 10732 10733 10734 10735 10736 10736 10735 10730 10727 10729 10730 10729 10730 10731 10731 10732 10731 10731 10732 10733 10734 10735 10736 10736 10737 10738 10740 10741 10742 10744
10719 10717 10716 10715 10715 10715 10715 10716 10716 10716 10716 10717 10718 10718 10718 10719 10718 10717 10716 10716 10717 10718 10718 10718 10719 10721 10721 10721 10723 10723 10722 10722 10723 10723 10726 10727 10726 10726 10726 10725 10725 10725 10724 10724 10723 10723 10722 10721 10721 10720 10721 10721 10722 10723 10725 10726 10728 10729 10730 10731 10732 10730 10725 10723 10725 10726 10726 10726 10727 10727 10728 10728 10728 10729 10730 10731 10732 10732 10733 10734 10735 10736 10738 10739 10741
10710 10709 10709 10709 10709 10710 10709 10709 10709 10709 10709 10710 10710 10710 10711 10711 10712 10711 10710 10709 10710 10712 10712 10711 10712 10714 10714 10715 10717 10717 10717 10716 10715 10716 10719 10719 10718 10718 10717 10716 10717 10717 10716 10717 10717 10716 10716 10716 10716 10716 10715 10716 10716 10718 10719 10720 10722 10724 10725 10726 10727 10725 10721 10720 10721 10722 10723 10723 10723 10723 10724 10725 10725 10726 10727 10728 10729 10730 10730 10731 10732 10734 10735 10737 10738
10702 10701 10702 10702 10703 10704 10703 10702 10702 10702 10702 10702 10702 10703 10704 10705 10706 10705 10703 10702 10703 10706 10706 10705 10705 10707 10708 10709 10711 10711 10710 10709 10708 10709 10711 10711 10710 10709 10709 10707 10708 10709 10708 10709 10709 10709 10709 10710 10711 10711 10710 10710 10711 10712 10713 10714 10716 10717 10719 10721 10722 10721 10717 10716 10717 10718 10719 10720 10720 10720 10720 10721 10722 10723 10724 10725 10726 10727 10727 10728 10730 10731 10733 10734 10736
10695 10694 10694 10696 10699 10700 10697 10696 10695 10695 10695 10695 10695 10696 10697 10698 10700 10699 10697 10695 10697 10700 10701 10700 10700 10702 10703 10704 10705 10705 10703 10702 10701 10702 10703 10703 10702 10701 10701 10699 10700 10700 10700 10701 10702 10702 10703 10704 10705 10705 10705 10705 10706 10706 10707 10709 10710 10711 10713 10715 10717 10716 10714 10712 10712 10714 10715 10716 10716 10716 10716 10717 10719 10720 10721 10722 10723 10724 10724 10726 10727 10729 10730 10732 10733
10689 10688 10686 10690 10696 10694 10690 10688 10686 10687 10689 10688 10689 10690 10691 10692 10693 10693 10691 10690 10692 10694 10696 10696 10696 10698 10699 10699 10698 10698 10696 10695 10694 10695 10695 10695 10694 10693 10692 10691 10692 10692 10693 10694 10694 10695 10696 10697 10698 10699 10699 10700 10700 10701 10702 10703 10704 10705 10706 10709 10711 10711 10710 10708 10708 10710 10711 10712 10713 10713 10713 10714 10715 10716 10718 10719 10720 10721 10721 10723 10724 10726 10728 10729 10730
10683 10682 10681 10684 10688 10687 10684 10680 10679 10681 10682 10682 10682 10684 10685 10686 10686 10686 10686 10686 10686 10688 10690 10692 10692 10693 10694 10693 10692 10691 10690 10689 10688 10688 10688 10687 10686 10685 10684 10684 10684 10685 10685 10686 10687 10688 10689 10691 10692 10693 10694 10695 10695 10696 10696 10697 10699 10699 10701 10703 10706 10706 10705 10705 10704 10706 10707 10708 10709 10709 10709 10710 10711 10712 10714 10715 10717 10718 10719 10719 10720 10723 10725 10727 10728
10675 10675 10675 10675 10678 10680 10680 10676 10675 10676 10676 10676 10676 10677 10678 10679 10679 10680 10681 10680 10681 10683 10685 10687 10688 10689 10688 10687 10686 10685 10684 10683 10682 10682 10680 10679 10678 10678 10677 10677 10677 10678 10679 10680 10681 10682 10683 10685 10686 10687 10688 10689 10690 10690 10691 10692 10693 10695 10696 10699 10700 10701 10701 10700 10700 10701 10703 10704 10705 10706 10706 10706 10707 10708 10710 10711 10713 10715 10716 10717 10717 10719 10721 10724 10726
10668 10668 10667 10667 10668 10670 10672 10671 10672 10671 10670 10671 10671 10672 10673 10673 10674 10675 10676 10676 10676 10679 10681 10682 10683 10682 10681 10681 10681 10680 10679 10678 10676 10675 10673 10672 10672 10671 10670 10670 10670 10671 10673 10673 10674 10676 10678 10679 10680 10681 10682 10683 10684 10685 10686 10687 10688 10691 10692 10693 10694 10696 10696 10695 10695 10696 10698 10699 10700 10702 10702 10702 10703 10704 10705 10707 10709 10711 10713 10714 10714 10715 10717 10720 10722
10662 10662 10660 10660 10661 10662 10663 10665 10666 10665 10665 10666 10667 10669 10669 10669 10671 10672 10673 10673 10673 10675 10676 10677 10676 10675 10674 10674 10674 10674 10673 10672 10671 10669 10667 10666 10665 10665 10664 10663 10664 10665 10666 10667 10669 10671 10673 10675 10675 10674 10676 10677 10678 10680 10680 10681 10683 10686 10687 10687 10688 10690 10691 10690 10690 10691 10693 10695 10695 10697 10698 10698 10699 10700 10701 10703 10705 10707 10709 10711 10711 10711 10712 10716 10718
10658 10658 10657 10656 10657 10657 10658 10659 10660 10659 10660 10662 10663 10664 10665 10667 10668 10669 10669 10669 10669 10669 10670 10671 10670 10670 10668 10668 10668 10668 10667 10666 10665 10663 10661 10660 10659 10658 10658 10657 10658 10659 10660 10662 10664 10666 10668 10670 10670 10669 10670 10672 10673 10674 10675 10675 10678 10680 10680 10681 10683 10685 10686 10686 10686 10686 10688 10690 10690 10692 10693 10694 10694 10695 10697 10699 10701 10703 10705 10707 10708 10707 10708 10710 10713
10653 10654 10655 10654 10654 10654 10654 10655 10655 10656 10656 10656 10657 10659 10660 10662 10664 10665 10665 10664 10665 10664 10664 10664 10664 10664 10663 10663 10663 10662 10661 10659 10658 10656 10654 10653 10652 10651 10651 10652 10653 10654 10656 10657 10659 10661 10663 10665 10665 10665 10665 10666 10667 10669 10669 10670 10672 10674 10675 10677 10678 10680 10681 10682 10683 10683 10683 10684 10685 10687 10688 10689 10689 10690 10693 10696 10698 10700 10702 10703 10705 10706 10706 10706 10707
10646 10649 10650 10651 10651 10651 10651 10652 10652 10652 10652 10651 10652 10653 10654 10656 10658 10659 10659 10660 10660 10660 10659 10659 10659 10658 10658 10658 10658 10657 10655 10653 10651 10649 10648 10647 10646 10645 10645 10647 10648 10650 10651 10653 10654 10656 10657 10659 10660 10660 10660 10661 10663 10663 10664 10666 10667 10668 10670 10672 10673 10674 10676 10677 10679 10679 10678 10679 10680 10682 10683 10684 10684 10686 10689 10692 10694 10696 10698 10700 10701 10703 10704 10704 10704
10640 10643 10645 10646 10646 10646 10647 10649 10649 10649 10648 10647 10647 10648 10649 10650 10651 10652 10653 10654 10655 10656 10656 10656 10655 10654 10653 10653 10653 10652 10650 10648 10646 10644 10643 10642 10641 10640 10641 10643 10644 10645 10647 10648 10650 10651 10651 10653 10654 10655 10655 10656 10658 10659 10659 10661 10662 10663 10665 10667 10669 10670 10671 10672 10674 10674 10674 10673 10675 10677 10678 10679 10680 10682 10684 10687 10689 10692 10694 10696 10697 10699 10701 10702 10702
10637 10639 10641 10642 10643 10643 10645 10645 10646 10645 10644 10643 10642 10643 10644 10645 10646 10646 10646 10647 10648 10650 10652 10652 10652 10651 10650 10649 10647 10646 10645 10644 10642 10640 10639 10638 10637 10636 10636 10638 10640 10641 10642 10644 10645 10646 10647 10648 10649 10650 10650 10652 10654 10654 10654 10656 10657 10658 10660 10662 10664 10665 10666 10667 10668 10669 10670 10669 10671 10673 10674 10674 10676 10677 10680 10682 10685 10687 10689 10691 10693 10695 10698 10699 10701
10634 10635 10637 10638 10640 10641 10642 10641 10641 10640 10639 10638 10637 10638 10639 10641 10643 10643 10642 10641 10641 10642 10645 10647 10648 10648 10647 10645 10642 10640 10639 10638 10637 10636 10635 10634 10633 10632 10632 10634 10635 10637 10638 10639 10640 10641 10642 10643 10644 10645 10645 10647 10649 10650 10650 10651 10653 10654 10655 10656 10657 10659 10660 10662 10663 10665 10666 10666 10667 10668 10669 10670 10672 10673 10675 10677 10679 10682 10684 10686 10689 10691 10694 10696 10697
10630 10632 10633 10634 10636 10637 10637 10637 10636 10635 10634 10633 10632 10632 10633 10636 10639 10640 10640 10638 10637 10637 10638 10639 10642 10642 10642 10640 10638 10636 10633 10632 10630 10629 10629 10629 10628 10628 10628 10629 10630 10632 10633 10633 10635 10636 10637 10638 10639 10640 10641 10642 10644 10645 10645 10646 10648 10649 10650 10651 10652 10653 10655 10656 10659 10660 10661 10663 10664 10664 10664 10666 10668 10670 10671 10673 10675 10676 10679 10682 10684 10687 10689 10691 10693
10627 10628 10629 10630 10631 10632 10632 10632 10631 10631 10630 10628 10627 10626 10627 10630 10633 10635 10636 10636 10635 10635 10634 10634 10635 10635 10635 10635 10634 10632 10630 10627 10625 10624 10623 10623 10623 10622 10623 10623 10624 10626 10627 10628 10629 10630 10632 10634 10635 10635 10636 10637 10639 10640 10640 10641 10643 10644 10646 10646 10647 10648 10650 10652 10654 10656 10657 10659 10660 10660 10660 10662 10664 10666 10668 10669 10671 10674 10676 10678 10680 10682 10684 10686 10688
10622 10624 10625 10625 10625 10626 10627 10627 10627 10626 10625 10624 10621 10620 10621 10623 10626 10629 10631 10632 10633 10633 10632 10631 10630 10630 10630 10629 10629 10628 10626 10624 10622 10620 10619 10619 10618 10618 10618 10618 10619 10621 10622 10622 10623 10625 10626 10628 10629 10630 10631 10632 10633 10635 10636 10636 10638 10640 10641 10642 10643 10644 10645 10648 10650 10651 10653 10654 10655 10656 10657 10658 10660 10662 10664 10665 10667 10670 10672 10674 10676 10678 10680 10681 10683
10617 10618 10619 10619 10619 10621 10621 10621 10621 10620 10620 10619 10617 10615 10614 10616 10619 10623 10625 10627 10628 10628 10628 10627 10626 10626 10625 10624 10624 10623 10622 10620 10619 10618 10617 10616 10615 10614 10614 10614 10615 10616 10617 10617 10618 10619 10621 10622 10623 10624 10625 10626 10628 10630 10631 10632 10633 10635 10637 10638 10639 10640 10641 10643 10645 10646 10648 10650 10651 10652 10654 10655 10656 10658 10660 10661 10662 10665 10667 10669 10671 10673 10675 10677 10679
10612 10613 10613 10613 10614 10615 10616 10615 10614 10614 10614 10613 10612 10610 10608 10609 10613 10616 10619 10620 10621 10622 10622 10622 10621 10621 10620 10619 10619 10618 10618 10616 10615 10614 10613 10613 10612 10611 10610 10610 10611 10611 10611 10612 10613 10614 10615 10617 10617 10618 10619 10621 10622 10624 10626 10627 10629 10630 10632 10633 10635 10636 10637 10638 10640 10642 10644 10646 10647 10648 10650 10652 10653 10654 10656 10656 10657 10660 10662 10664 10667 10668 10670 10672 10674
10607 10607 10608 10609 10609 10610 10611 10610 10609 10608 10609 10608 10607 10605 10603 10603 10607 10610 10612 10613 10614 10615 10615 10616 10616 10615 10615 10615 10614 10614 10613 10612 10611 10610 10609 10609 10609 10608 10607 10607 10607 10607 10607 10607 10608 10609 10610 10611 10612 10613 10614 10615 10617 10618 10620 10622 10624 10626 10628 10629 10630 10631 10633 10635 10637 10638 10640 10642 10643 10644 10646 10647 10649 10650 10651 10652 10653 10656 10658 10660 10662 10664 10665 10667 10669
10602 10602 10603 10604 10604 10605 10606 10605 10604 10604 10604 10604 10603 10602 10600 10599 10601 10604 10606 10606 10607 10608 10609 10610 10610 10610 10610 10610 10610 10609 10608 10607 10607 10606 10606 10606 10606 10605 10605 10604 10604 10604 10604 10604 10604 10605 10605 10606 10607 10609 10609 10611 10612 10613 10615 10617 10619 10621 10623 10625 10625 10627 10629 10630 10633 10635 10636 10638 10639 10640 10641 10642 10644 10646 10647 10649 10650 10653 10655 10656 10658 10660 10661 10663 10664
10597 10597 10598 10598 10599 10600 10601 10601 10601 10601 10601 10600 10599 10598 10597 10595 10595 10597 10598 10600 10601 10602 10604 10605 10605 10605 10605 10605 10605 10604 10604 10603 10602 10602 10601 10602 10602 10602 10602 10602 10601 10601 10601 10601 10601 10602 10602 10603 10603 10604 10606 10607 10608 10609 10610 10612 10614 10616 10619 10620 10621 10623 10624 10626 10629 10631 10632 10633 10635 10636 10637 10638 10640 10642 10644 10646 10647 10649 10651 10652 10654 10655 10657 10658 10659
10592 10592 10591 10592 10594 10595 10596 10596 10596 10597 10597 10596 10595 10594 10593 10591 10590 10590 10591 10593 10596 10597 10598 10600 10600 10600 10600 10600 10600 10600 10600 10599 10599 10598 10598 10598 10598 10599 10598 10598 10598 10599 10599 10599 10599 10599 10599 10600 10600 10601 10602 10603 10604 10605 10606 10607 10609 10611 10614 10615 10617 10618 10620 10622 10624 10626 10628 10629 10631 10632 10634 10635 10636 10638 10640 10643 10644 10645 10647 10648 10649 10650 10651 10653 10654
10587 10587 10587 10587 10588 10590 10591 10592 10591 10592 10592 10591 10590 10589 10588 10587 10585 10584 10584 10586 10590 10592 10593 10594 10595 10595 10594 10594 10595 10595 10595 10595 10595 10595 10594 10595 10595 10595 10595 10595 10595 10595 10596 10596 10596 10597 10597 10597 10597 10598 10599 10600 10600 10601 10602 10603 10604 10606 10609 10610 10612 10613 10616 10618 10620 10622 10623 10625 10627 10628 10629 10631 10632 10634 10636 10639 10641 10642 10642 10643 10643 10644 10646 10648 10649